DW2257 Weather Reports


time (UTC)temp
C
wind
direction
speed
KPH
gust
KPH
rain 1hr
cm
rain 24hr
cm
rain mn
cm
humidity
%
barometer
mb
20260507211651 18 194 6.4 29.0 0.00 0.03 0.03 30 1003.3
20260507210207 18 267 4.8 24.1 0.00 0.03 0.03 30 1003.3
20260507204651 18 250 14.5 22.5 0.00 0.03 0.03 30 1003.3
20260507203149 18 280 11.3 19.3 0.00 0.03 0.03 29 1003.4
20260507201648 18 326 9.7 24.1 0.03 0.03 0.03 29 1003.4
20260507200147 18 323 6.4 22.5 0.03 0.03 0.03 28 1003.4
20260507194642 18 343 6.4 25.7 0.03 0.03 0.03 30 1003.6
20260507193136 18 277 12.9 24.1 0.03 0.03 0.03 29 1003.6
20260507191649 18 278 6.4 20.9 0.00 0.00 0.00 31 1003.7
20260507190147 18 286 6.4 19.3 0.00 0.00 0.00 31 1003.8
20260507184640 18 315 11.3 22.5 0.00 0.00 0.00 30 1004.0
20260507183158 18 253 11.3 25.7 0.00 0.00 0.00 32 1004.2
20260507181713 18 254 8.0 27.4 0.00 0.00 0.00 34 1004.4
20260507180149 18 251 11.3 22.5 0.00 0.00 0.00 36 1004.4
20260507174645 17 237 11.3 24.1 0.00 0.00 0.00 39 1004.4
20260507173136 17 262 4.8 20.9 0.00 0.00 0.00 46 1004.4
20260507171654 17 229 8.0 20.9 0.00 0.00 0.00 45 1004.4
20260507170151 17 267 9.7 27.4 0.00 0.00 0.00 49 1004.6
20260507164649 15 171 3.2 16.1 0.00 0.00 0.00 62 1004.9
20260507163141 15 132 6.4 11.3 0.00 0.00 0.00 60 1005.0
20260507161638 15 263 3.2 6.4 0.00 0.00 0.00 57 1005.2
20260507160156 16 110 4.8 14.5 0.00 0.00 0.00 51 1005.4
20260507154710 16 230 12.9 19.3 0.00 0.00 0.00 51 1005.4
20260507153152 16 264 4.8 24.1 0.00 0.00 0.00 51 1005.5
20260507151648 16 301 8.0 20.9 0.00 0.00 0.00 48 1005.6
20260507150207 16 169 4.8 17.7 0.00 0.00 0.00 50 1005.9
20260507144644 15 261 6.4 9.7 0.00 0.00 0.00 51 1006.0
20260507143136 15 246 8.0 19.3 0.00 0.00 0.00 52 1006.0
20260507141652 15 275 6.4 16.1 0.00 0.00 0.00 55 1006.0
20260507140149 15 250 4.8 11.3 0.00 0.00 0.00 60 1006.0
20260507134645 13 339 3.2 19.3 0.00 0.00 0.00 60 1006.0
20260507133144 13 115 4.8 9.7 0.00 0.00 0.00 66 1006.1
20260507131636 12 24 1.6 9.7 0.00 0.00 0.00 72 1006.3
20260507130153 12 281 3.2 14.5 0.00 0.00 0.00 77 1006.4
20260507124651 11 261 1.6 19.3 0.00 0.00 0.00 81 1006.6
20260507123148 10 5 3.2 16.1 0.00 0.00 0.00 85 1006.3
20260507121646 10 298 3.2 9.7 0.00 0.00 0.00 87 1006.3
20260507120140 10 290 3.2 4.8 0.00 0.00 0.00 89 1006.4
20260507114634 10 229 1.6 4.8 0.00 0.00 0.00 90 1006.4
20260507113214 10 318 1.6 4.8 0.00 0.00 0.00 90 1006.0
20260507111711 10 315 1.6 6.4 0.00 0.00 0.00 90 1006.0
20260507110148 10 287 0.0 4.8 0.00 0.00 0.00 90 1006.0
20260507104647 10 227 0.0 3.2 0.00 0.00 0.00 90 1006.4
20260507103145 10 269 1.6 4.8 0.00 0.00 0.00 90 1005.9
20260507101642 10 283 0.0 11.3 0.00 0.00 0.00 90 1006.0
20260507100134 10 295 0.0 9.7 0.00 0.00 0.00 90 1005.6
20260507094652 10 250 0.0 14.5 0.00 0.00 0.00 89 1005.7
20260507093152 10 344 4.8 14.5 0.00 0.00 0.00 89 1005.4
20260507091650 11 313 1.6 16.1 0.00 0.00 0.00 88 1005.6
20260507090147 11 310 3.2 11.3 0.00 0.00 0.00 88 1005.6
20260507084645 11 191 1.6 6.4 0.00 0.00 0.00 88 1005.4
20260507083142 12 262 1.6 6.4 0.00 0.00 0.00 86 1005.4
20260507081641 12 309 3.2 16.1 0.00 0.00 0.00 84 1005.7
20260507080133 12 271 3.2 19.3 0.00 0.00 0.00 83 1005.0
20260507074712 12 292 1.6 12.9 0.00 0.00 0.00 82 1005.2
20260507073148 12 348 1.6 14.5 0.00 0.00 0.00 83 1004.6
20260507071639 12 291 3.2 8.0 0.00 0.00 0.00 84 1004.7
20260507070134 13 231 3.2 11.3 0.00 0.00 0.00 83 1004.7
20260507064651 13 227 1.6 14.5 0.00 0.00 0.00 81 1004.7
20260507063151 13 252 4.8 19.3 0.00 0.00 0.00 83 1004.5
20260507061648 13 303 3.2 9.7 0.00 0.00 0.00 88 1004.4
20260507060146 14 332 0.0 11.3 0.00 0.00 0.00 88 1004.6
20260507054640 14 273 9.7 16.1 0.00 0.00 0.00 88 1004.9
20260507053134 14 261 3.2 9.7 0.00 0.00 0.00 89 1004.5
20260507051652 15 319 1.6 16.1 0.00 0.00 0.00 90 1004.8
20260507050150 15 291 8.0 25.7 0.00 0.00 0.00 93 1004.5
20260507044705 15 282 1.6 11.3 0.00 0.00 0.00 94 1004.3
20260507043140 15 263 4.8 8.0 0.00 0.00 0.00 95 1004.3
20260507041634 15 234 4.8 9.7 0.00 0.00 0.00 95 1004.6
20260507040152 15 247 11.3 17.7 0.00 0.00 0.00 95 1004.8
20260507034706 14 231 9.7 16.1 0.00 0.00 0.00 95 1004.4
20260507033137 13 219 6.4 12.9 0.00 0.00 0.00 94 1004.4
20260507031652 13 228 6.4 12.9 0.00 0.00 0.00 94 1004.2
20260507030151 13 163 4.8 14.5 0.00 0.00 0.00 94 1004.0
20260507024648 13 216 8.0 16.1 0.00 0.00 0.00 94 1004.3
20260507023147 13 210 6.4 16.1 0.00 0.00 0.00 94 1004.3
20260507021645 13 209 6.4 16.1 0.00 0.00 0.00 94 1004.2
20260507020146 13 176 4.8 12.9 0.00 0.00 0.00 94 1004.3
20260507014639 13 263 4.8 4.8 0.00 0.00 0.00 94 1004.4
20260507013132 -17 0.0 0.0 0.00 0.00 0.00 -0.1
20260507011709 -17 0.0 0.0 0.00 0.00 0.00 -0.1
20260507010144 -17 0.0 0.0 0.00 0.00 0.00 -0.1
20260507004637 -17 0.0 0.0 0.00 0.00 0.00 -0.1
20260507003154 -17 0.0 0.0 0.00 0.00 0.00 -0.1
20260507001649 -17 0.0 0.0 0.00 0.00 0.00 -0.1
20260507000147 -17 0.0 0.0 0.00 0.00 0.00 -0.1
20260506234648 -17 0.0 0.0 0.00 0.00 0.00 -0.1
20260506233144 -17 0.0 0.0 0.00 0.00 0.00 -0.1
20260506231640 -17 0.0 0.0 0.00 0.00 0.00 -0.1
20260506230133 -17 0.0 0.0 0.00 0.00 0.00 -0.1
20260506224651 -17 0.0 0.0 0.00 0.00 0.00 -0.1
20260506223147 -17 0.0 0.0 0.00 0.00 0.00 -0.1
20260506221644 -17 0.0 0.0 0.00 0.00 0.00 -0.1
20260506220140 -17 0.0 0.0 0.00 0.00 0.00 -0.1
20260506214633 -17 0.0 0.0 0.00 0.00 0.00 -0.1
20260506213149 -17 0.0 0.0 0.00 0.00 0.00 -0.1